EXS7D EGBB-LPFR

Flight info

Callsign EXS7D
Flight time 2h 32m
Altitude 23000
Route ADMEX Y321 PEPIS/N0443F360 Q41 SAM/N0438F350 M195 IBNID/N0445F370 M195 LORKU DCT POZOF DCT BALDA DCT ABUPI DCT BIRBA DCT ALAGU
Aircraft A320/M-SDE3FGHIRWY/LB1

Departure

Time 2026-04-28 05:13
Airport Birmingham Airport (EGBB)

Arrival

Time 2026-04-28 07:46
Airport Faro - Gago Coutinho International Airport (LPFR)
Time Latitude Longitude Altitude Speed Heading
2026-04-28 04:38 52.45295 -1.73800 324 ft 0 kts 146°
2026-04-28 05:03 52.45307 -1.73814 323 ft 4 kts 149°
2026-04-28 05:03 52.45331 -1.73835 322 ft 4 kts 159°
2026-04-28 05:03 52.45357 -1.73845 321 ft 4 kts 188°
2026-04-28 05:04 52.45373 -1.73834 321 ft 1 kts 236°
2026-04-28 05:04 52.45375 -1.73829 322 ft 0 kts 236°
2026-04-28 05:08 52.45367 -1.73848 322 ft 3 kts 236°
2026-04-28 05:09 52.45348 -1.73893 323 ft 6 kts 235°
2026-04-28 05:09 52.45319 -1.73958 323 ft 8 kts 221°
2026-04-28 05:09 52.45262 -1.73953 323 ft 10 kts 153°
2026-04-28 05:09 52.45200 -1.73885 323 ft 12 kts 146°
2026-04-28 05:10 52.45125 -1.73802 323 ft 14 kts 146°
2026-04-28 05:10 52.45027 -1.73735 323 ft 16 kts 155°
2026-04-28 05:10 52.44924 -1.73644 323 ft 17 kts 184°
2026-04-28 05:10 52.44827 -1.73683 323 ft 14 kts 197°
2026-04-28 05:11 52.44745 -1.73730 323 ft 10 kts 211°
2026-04-28 05:11 52.44702 -1.73818 326 ft 9 kts 236°
2026-04-28 05:11 52.44668 -1.73899 326 ft 10 kts 236°
2026-04-28 05:11 52.44649 -1.73989 325 ft 7 kts 311°
2026-04-28 05:12 52.44665 -1.74004 326 ft 0 kts 327°
2026-04-28 05:12 52.44735 -1.74080 326 ft 43 kts 326°
2026-04-28 05:12 52.45178 -1.74572 329 ft 107 kts 326°
2026-04-28 05:13 52.45943 -1.75428 319 ft 157 kts 328°
2026-04-28 05:13 52.46864 -1.76478 820 ft 160 kts 328°
2026-04-28 05:13 52.47766 -1.77525 1528 ft 159 kts 327°
2026-04-28 05:13 52.48674 -1.78547 2118 ft 160 kts 327°
2026-04-28 05:14 52.49649 -1.79638 2388 ft 181 kts 327°
2026-04-28 05:14 52.50872 -1.80446 2593 ft 202 kts 356°
2026-04-28 05:14 52.52293 -1.79962 2897 ft 219 kts 32°
2026-04-28 05:14 52.53326 -1.78120 3588 ft 225 kts 67°
2026-04-28 05:15 52.53739 -1.75624 4389 ft 228 kts 79°
2026-04-28 05:15 52.53747 -1.73019 5203 ft 231 kts 101°
2026-04-28 05:15 52.53395 -1.70433 5986 ft 234 kts 102°
2026-04-28 05:15 52.52968 -1.67833 6736 ft 239 kts 114°
2026-04-28 05:16 52.51985 -1.65543 7185 ft 259 kts 134°
2026-04-28 05:16 52.50655 -1.63391 7642 ft 275 kts 135°
2026-04-28 05:16 52.49266 -1.61169 8359 ft 281 kts 135°
2026-04-28 05:17 52.46414 -1.56625 9895 ft 291 kts 138°
2026-04-28 05:17 52.44715 -1.54714 10584 ft 297 kts 148°
2026-04-28 05:17 52.42881 -1.52900 10807 ft 320 kts 148°
2026-04-28 05:17 52.40916 -1.50974 11108 ft 336 kts 148°
2026-04-28 05:18 52.38892 -1.48996 11709 ft 341 kts 148°
2026-04-28 05:18 52.36812 -1.47086 12349 ft 345 kts 155°
2026-04-28 05:18 52.34526 -1.45813 13014 ft 350 kts 167°
2026-04-28 05:18 52.32113 -1.45098 13708 ft 353 kts 170°
2026-04-28 05:19 52.29685 -1.44413 14375 ft 356 kts 170°
2026-04-28 05:19 52.27232 -1.43723 14963 ft 359 kts 170°
2026-04-28 05:19 52.24754 -1.43025 15553 ft 363 kts 170°
2026-04-28 05:19 52.22257 -1.42324 16136 ft 366 kts 170°
2026-04-28 05:20 52.19741 -1.41616 16717 ft 369 kts 169°
2026-04-28 05:20 52.17203 -1.40899 17289 ft 372 kts 169°
2026-04-28 05:20 52.14640 -1.40172 17872 ft 375 kts 169°
2026-04-28 05:20 52.12058 -1.39444 18446 ft 378 kts 169°
2026-04-28 05:21 52.09455 -1.38715 18978 ft 382 kts 169°
2026-04-28 05:21 52.06826 -1.37977 19497 ft 385 kts 169°
2026-04-28 05:21 52.04180 -1.37233 20026 ft 387 kts 169°
2026-04-28 05:21 52.02416 -1.36738 20383 ft 389 kts 169°
2026-04-28 05:22 52.01907 -1.36595 20485 ft 390 kts 169°
2026-04-28 05:22 51.99225 -1.35829 20998 ft 393 kts 169°
2026-04-28 05:22 51.96519 -1.35062 21510 ft 395 kts 169°
2026-04-28 05:22 51.93802 -1.34297 21990 ft 398 kts 169°
2026-04-28 05:23 51.91065 -1.33536 22497 ft 401 kts 169°
2026-04-28 05:23 51.88299 -1.32773 22996 ft 404 kts 169°
2026-04-28 05:23 51.85518 -1.32008 23498 ft 407 kts 169°
2026-04-28 05:23 51.82712 -1.31235 23963 ft 410 kts 169°
2026-04-28 05:24 51.79890 -1.30456 24370 ft 413 kts 169°
2026-04-28 05:24 51.77050 -1.29665 24766 ft 415 kts 169°
2026-04-28 05:24 51.74193 -1.28869 25135 ft 418 kts 169°
2026-04-28 05:24 51.71318 -1.28070 25532 ft 420 kts 169°
2026-04-28 05:25 51.68389 -1.27259 25935 ft 423 kts 169°
2026-04-28 05:25 51.65490 -1.26460 26325 ft 425 kts 170°
2026-04-28 05:25 51.62559 -1.25656 26688 ft 427 kts 170°
2026-04-28 05:25 51.59623 -1.24848 27059 ft 429 kts 170°
2026-04-28 05:26 51.56674 -1.24036 27436 ft 431 kts 170°
2026-04-28 05:26 51.53708 -1.23222 27786 ft 434 kts 170°
2026-04-28 05:26 51.50720 -1.22420 28141 ft 436 kts 172°
2026-04-28 05:26 51.47691 -1.22106 28495 ft 438 kts 181°
2026-04-28 05:27 51.44648 -1.22336 28857 ft 440 kts 183°
2026-04-28 05:27 51.41580 -1.22592 29182 ft 442 kts 183°
2026-04-28 05:27 51.38499 -1.22847 29531 ft 444 kts 183°
2026-04-28 05:27 51.35408 -1.23099 29870 ft 446 kts 183°
2026-04-28 05:28 51.32302 -1.23349 30224 ft 448 kts 183°
2026-04-28 05:28 51.29242 -1.23592 30502 ft 451 kts 183°
2026-04-28 05:28 51.26113 -1.23839 30885 ft 450 kts 183°
2026-04-28 05:28 51.23000 -1.24087 31300 ft 448 kts 184°
2026-04-28 05:29 51.19894 -1.24476 31715 ft 446 kts 189°
2026-04-28 05:29 51.16872 -1.25523 32100 ft 445 kts 196°
2026-04-28 05:29 51.13885 -1.26793 32492 ft 444 kts 196°
2026-04-28 05:29 51.10902 -1.28056 32908 ft 442 kts 196°
2026-04-28 05:30 51.07937 -1.29311 33319 ft 442 kts 196°
2026-04-28 05:30 51.04965 -1.30563 33713 ft 441 kts 196°
2026-04-28 05:30 51.01997 -1.31805 34118 ft 441 kts 196°
2026-04-28 05:30 50.99036 -1.33036 34462 ft 440 kts 196°
2026-04-28 05:31 50.96131 -1.34523 34760 ft 438 kts 204°
2026-04-28 05:31 50.93418 -1.36698 35017 ft 437 kts 213°
2026-04-28 05:31 50.90880 -1.39344 35272 ft 437 kts 215°
2026-04-28 05:31 50.88346 -1.42003 35528 ft 437 kts 215°
2026-04-28 05:32 50.85807 -1.44653 35784 ft 437 kts 214°
2026-04-28 05:32 50.83263 -1.47298 36020 ft 438 kts 214°
2026-04-28 05:32 50.80708 -1.49943 36216 ft 439 kts 214°
2026-04-28 05:32 50.78109 -1.52626 36275 ft 441 kts 214°
2026-04-28 05:33 50.72959 -1.57938 36273 ft 443 kts 214°
2026-04-28 05:33 50.67797 -1.63257 36273 ft 443 kts 214°
2026-04-28 05:34 50.62633 -1.68565 36273 ft 443 kts 215°
2026-04-28 05:34 50.57467 -1.73878 36272 ft 444 kts 215°
2026-04-28 05:35 50.52295 -1.79172 36274 ft 444 kts 215°
2026-04-28 05:35 50.47110 -1.84460 36272 ft 444 kts 215°
2026-04-28 05:36 50.42848 -1.88799 36269 ft 444 kts 215°
2026-04-28 05:36 50.37655 -1.94066 36265 ft 445 kts 215°
2026-04-28 05:37 50.32456 -1.99330 36266 ft 445 kts 215°
2026-04-28 05:37 50.27251 -2.04592 36265 ft 446 kts 215°
2026-04-28 05:38 50.22027 -2.09826 36272 ft 446 kts 214°
2026-04-28 05:38 50.16722 -2.14981 36265 ft 447 kts 214°
2026-04-28 05:39 50.11427 -2.20080 36270 ft 447 kts 214°
2026-04-28 05:39 50.06142 -2.25194 36265 ft 447 kts 214°
2026-04-28 05:40 50.00856 -2.30319 36268 ft 448 kts 214°
2026-04-28 05:40 49.95566 -2.35420 36267 ft 448 kts 214°
2026-04-28 05:41 49.89986 -2.39789 36265 ft 450 kts 206°
2026-04-28 05:41 49.84274 -2.43782 36258 ft 451 kts 206°
2026-04-28 05:42 49.78558 -2.47779 36262 ft 451 kts 207°
2026-04-28 05:42 49.72838 -2.51761 36244 ft 451 kts 206°
2026-04-28 05:43 49.67107 -2.55718 36231 ft 451 kts 206°
2026-04-28 05:43 49.61379 -2.59677 36223 ft 451 kts 206°
2026-04-28 05:44 49.55646 -2.63640 36215 ft 452 kts 206°
2026-04-28 05:44 49.49916 -2.67589 36206 ft 451 kts 206°
2026-04-28 05:45 49.44190 -2.71525 36207 ft 451 kts 206°
2026-04-28 05:45 49.38460 -2.75454 36209 ft 450 kts 206°
2026-04-28 05:46 49.32703 -2.79391 36212 ft 450 kts 206°
2026-04-28 05:46 49.27035 -2.83259 36215 ft 450 kts 206°
2026-04-28 05:47 49.21321 -2.87138 36217 ft 449 kts 206°
2026-04-28 05:47 49.15609 -2.91005 36219 ft 449 kts 206°
2026-04-28 05:48 49.09896 -2.94862 36220 ft 449 kts 206°
2026-04-28 05:48 49.04180 -2.98716 36256 ft 449 kts 206°
2026-04-28 05:49 48.98436 -3.02575 36200 ft 453 kts 206°
2026-04-28 05:49 48.92663 -3.06454 36187 ft 454 kts 206°
2026-04-28 05:50 48.86875 -3.10327 36189 ft 455 kts 206°
2026-04-28 05:50 48.81073 -3.14209 36198 ft 456 kts 206°
2026-04-28 05:51 48.75270 -3.18073 36199 ft 456 kts 206°
2026-04-28 05:51 48.69460 -3.21922 36201 ft 455 kts 206°
2026-04-28 05:52 48.63659 -3.25759 36208 ft 455 kts 206°
2026-04-28 05:52 48.57862 -3.29594 36208 ft 455 kts 206°
2026-04-28 05:53 48.52069 -3.33424 36209 ft 454 kts 206°
2026-04-28 05:53 48.46279 -3.37227 36208 ft 453 kts 206°
2026-04-28 05:54 48.40461 -3.41036 36209 ft 451 kts 206°
2026-04-28 05:54 48.34710 -3.44806 36207 ft 451 kts 206°
2026-04-28 05:55 48.28969 -3.48567 36207 ft 450 kts 206°
2026-04-28 05:55 48.23230 -3.52299 36204 ft 448 kts 206°
2026-04-28 05:56 48.17517 -3.56006 36206 ft 447 kts 206°
2026-04-28 05:56 48.11823 -3.59693 36200 ft 445 kts 206°
2026-04-28 05:57 48.06143 -3.63363 36190 ft 444 kts 206°
2026-04-28 05:57 48.00482 -3.67018 36184 ft 442 kts 206°
2026-04-28 05:58 47.94830 -3.70648 36189 ft 441 kts 206°
2026-04-28 05:58 47.89192 -3.74263 36182 ft 441 kts 206°
2026-04-28 05:59 47.83569 -3.77856 36180 ft 440 kts 206°
2026-04-28 05:59 47.77952 -3.81442 36182 ft 439 kts 206°
2026-04-28 06:00 47.72354 -3.85028 36174 ft 438 kts 206°
2026-04-28 06:00 47.66714 -3.88625 36173 ft 438 kts 206°
2026-04-28 06:01 47.61149 -3.92152 36176 ft 438 kts 206°
2026-04-28 06:01 47.55511 -3.95708 36166 ft 437 kts 206°
2026-04-28 06:02 47.49918 -3.99225 36168 ft 436 kts 206°
2026-04-28 06:02 47.44335 -4.02740 36157 ft 436 kts 206°
2026-04-28 06:03 47.38757 -4.06245 36152 ft 436 kts 206°
2026-04-28 06:03 47.33170 -4.09754 36156 ft 437 kts 206°
2026-04-28 06:04 47.27575 -4.13257 36157 ft 436 kts 206°
2026-04-28 06:04 47.22001 -4.16744 36151 ft 437 kts 206°
2026-04-28 06:05 47.16388 -4.20236 36151 ft 437 kts 206°
2026-04-28 06:05 47.10789 -4.23707 36150 ft 437 kts 206°
2026-04-28 06:06 47.05179 -4.27167 36152 ft 438 kts 205°
2026-04-28 06:06 46.99484 -4.30377 36153 ft 438 kts 203°
2026-04-28 06:07 46.93753 -4.33425 36152 ft 438 kts 203°
2026-04-28 06:07 46.88042 -4.36489 36153 ft 437 kts 203°
2026-04-28 06:08 46.82347 -4.39593 36153 ft 436 kts 203°
2026-04-28 06:08 46.77597 -4.42198 36147 ft 435 kts 203°
2026-04-28 06:09 46.71937 -4.45287 36145 ft 434 kts 203°
2026-04-28 06:09 46.66283 -4.48355 36140 ft 433 kts 203°
2026-04-28 06:10 46.60637 -4.51407 36139 ft 432 kts 203°
2026-04-28 06:10 46.55000 -4.54454 36146 ft 432 kts 203°
2026-04-28 06:11 46.49365 -4.57490 36150 ft 432 kts 203°
2026-04-28 06:11 46.43738 -4.60522 36144 ft 431 kts 203°
2026-04-28 06:12 46.38112 -4.63533 36145 ft 431 kts 203°
2026-04-28 06:12 46.32494 -4.66533 36137 ft 430 kts 203°
2026-04-28 06:13 46.26885 -4.69533 36134 ft 429 kts 203°
2026-04-28 06:13 46.21292 -4.72511 36132 ft 428 kts 203°
2026-04-28 06:14 46.15704 -4.75486 36125 ft 427 kts 203°
2026-04-28 06:14 46.10092 -4.78463 36120 ft 427 kts 203°
2026-04-28 06:15 46.04521 -4.81415 36117 ft 426 kts 203°
2026-04-28 06:15 45.98957 -4.84350 36116 ft 426 kts 203°
2026-04-28 06:16 45.93398 -4.87278 36114 ft 425 kts 203°
2026-04-28 06:16 45.87845 -4.90195 36104 ft 425 kts 203°
2026-04-28 06:17 45.82299 -4.93113 36098 ft 425 kts 203°
2026-04-28 06:18 45.73979 -4.97470 36102 ft 424 kts 203°
2026-04-28 06:18 45.68439 -5.00369 36098 ft 424 kts 203°
2026-04-28 06:19 45.62905 -5.03260 36096 ft 423 kts 203°
2026-04-28 06:19 45.57372 -5.06138 36093 ft 423 kts 203°
2026-04-28 06:20 45.51830 -5.09002 36092 ft 423 kts 202°
2026-04-28 06:20 45.46294 -5.11862 36093 ft 423 kts 203°
2026-04-28 06:21 45.40763 -5.14725 36087 ft 423 kts 203°
2026-04-28 06:21 45.35234 -5.17582 36092 ft 423 kts 203°
2026-04-28 06:22 45.29708 -5.20437 36086 ft 422 kts 202°
2026-04-28 06:22 45.24150 -5.23289 36091 ft 422 kts 202°
2026-04-28 06:23 45.18623 -5.26116 36088 ft 422 kts 202°
2026-04-28 06:23 45.13094 -5.28941 36091 ft 422 kts 202°
2026-04-28 06:24 45.07569 -5.31752 36096 ft 422 kts 202°
2026-04-28 06:24 45.02052 -5.34558 36097 ft 421 kts 202°
2026-04-28 06:25 44.96577 -5.37337 36092 ft 421 kts 202°
2026-04-28 06:25 44.91064 -5.40140 36098 ft 421 kts 202°
2026-04-28 06:26 44.85556 -5.42931 36090 ft 420 kts 202°
2026-04-28 06:26 44.80044 -5.45718 36086 ft 421 kts 202°
2026-04-28 06:27 44.74536 -5.48483 36087 ft 420 kts 202°
2026-04-28 06:27 44.69032 -5.51244 36089 ft 419 kts 202°
2026-04-28 06:28 44.63540 -5.54008 36084 ft 419 kts 202°
2026-04-28 06:28 44.58088 -5.56883 36086 ft 418 kts 205°
2026-04-28 06:29 44.52785 -5.60189 36082 ft 417 kts 207°
2026-04-28 06:29 44.47519 -5.63593 36079 ft 417 kts 206°
2026-04-28 06:30 44.42225 -5.66919 36078 ft 417 kts 206°
2026-04-28 06:30 44.36884 -5.70187 36074 ft 416 kts 205°
2026-04-28 06:31 44.31570 -5.73423 36072 ft 416 kts 205°
2026-04-28 06:31 44.26262 -5.76667 36070 ft 416 kts 205°
2026-04-28 06:32 44.20956 -5.79906 36067 ft 416 kts 205°
2026-04-28 06:32 44.15653 -5.83151 36065 ft 416 kts 205°
2026-04-28 06:33 44.10352 -5.86391 36067 ft 416 kts 205°
2026-04-28 06:33 44.05050 -5.89613 36066 ft 416 kts 205°
2026-04-28 06:34 43.99743 -5.92825 36068 ft 416 kts 205°
2026-04-28 06:34 43.94434 -5.96044 36068 ft 416 kts 205°
2026-04-28 06:35 43.89134 -5.99251 36066 ft 416 kts 205°
2026-04-28 06:35 43.83821 -6.02454 36067 ft 416 kts 205°
2026-04-28 06:36 43.78518 -6.05647 36066 ft 416 kts 205°
2026-04-28 06:36 43.73208 -6.08829 36069 ft 416 kts 205°
2026-04-28 06:37 43.67896 -6.12000 36069 ft 416 kts 204°
2026-04-28 06:37 43.62583 -6.15181 36069 ft 416 kts 205°
2026-04-28 06:38 43.57273 -6.18359 36070 ft 416 kts 204°
2026-04-28 06:38 43.51929 -6.21544 36068 ft 416 kts 204°
2026-04-28 06:39 43.46615 -6.24705 36070 ft 416 kts 204°
2026-04-28 06:39 43.41305 -6.27865 36063 ft 416 kts 204°
2026-04-28 06:40 43.35990 -6.31012 36059 ft 416 kts 204°
2026-04-28 06:40 43.30667 -6.34165 36056 ft 416 kts 204°
2026-04-28 06:41 43.25344 -6.37312 36058 ft 416 kts 204°
2026-04-28 06:41 43.20017 -6.40447 36054 ft 416 kts 204°
2026-04-28 06:42 43.14694 -6.43581 36049 ft 416 kts 204°
2026-04-28 06:42 43.09372 -6.46711 36046 ft 417 kts 204°
2026-04-28 06:43 43.04937 -6.49303 36044 ft 417 kts 204°
2026-04-28 06:43 42.99567 -6.52433 36039 ft 417 kts 204°
2026-04-28 06:44 42.94237 -6.55532 36038 ft 417 kts 204°
2026-04-28 06:44 42.91859 -6.56914 36027 ft 417 kts 203°
2026-04-28 06:45 42.86510 -6.59980 36015 ft 415 kts 204°
2026-04-28 06:45 42.81202 -6.63111 36008 ft 416 kts 204°
2026-04-28 06:46 42.75894 -6.66233 36010 ft 416 kts 204°
2026-04-28 06:46 42.70568 -6.69313 36007 ft 416 kts 203°
2026-04-28 06:47 42.65238 -6.72375 36004 ft 416 kts 203°
2026-04-28 06:47 42.59905 -6.75451 36003 ft 416 kts 204°
2026-04-28 06:48 42.54576 -6.78528 36008 ft 416 kts 204°
2026-04-28 06:48 42.49239 -6.81593 36007 ft 416 kts 204°
2026-04-28 06:49 42.43908 -6.84653 36003 ft 417 kts 204°
2026-04-28 06:49 42.38568 -6.87711 36002 ft 416 kts 203°
2026-04-28 06:50 42.33227 -6.90753 35996 ft 417 kts 203°
2026-04-28 06:50 42.27888 -6.93793 35997 ft 417 kts 203°
2026-04-28 06:51 42.22547 -6.96839 35994 ft 417 kts 203°
2026-04-28 06:51 42.17198 -6.99880 35992 ft 417 kts 203°
2026-04-28 06:52 42.11812 -7.02937 35994 ft 417 kts 203°
2026-04-28 06:52 42.06459 -7.05970 35993 ft 417 kts 203°
2026-04-28 06:53 42.01096 -7.08967 36291 ft 418 kts 199°
2026-04-28 06:53 41.98287 -7.09976 36567 ft 419 kts 194°
2026-04-28 06:53 41.95452 -7.10891 36825 ft 419 kts 194°
2026-04-28 06:53 41.92610 -7.11802 36964 ft 420 kts 194°
2026-04-28 06:54 41.89769 -7.12711 36976 ft 420 kts 194°
2026-04-28 06:54 41.84086 -7.14524 36973 ft 420 kts 194°
2026-04-28 06:55 41.78402 -7.16338 36973 ft 420 kts 194°
2026-04-28 06:55 41.72716 -7.18155 36967 ft 420 kts 194°
2026-04-28 06:56 41.67034 -7.19972 36965 ft 420 kts 194°
2026-04-28 06:56 41.61343 -7.21775 36964 ft 420 kts 194°
2026-04-28 06:57 41.55651 -7.23578 36960 ft 420 kts 194°
2026-04-28 06:57 41.49960 -7.25377 36958 ft 420 kts 194°
2026-04-28 06:58 41.44227 -7.27196 36955 ft 420 kts 194°
2026-04-28 06:58 41.38551 -7.29020 36952 ft 420 kts 194°
2026-04-28 06:59 41.32868 -7.30832 36946 ft 419 kts 194°
2026-04-28 06:59 41.27190 -7.32609 36944 ft 419 kts 194°
2026-04-28 07:00 41.21513 -7.34381 36934 ft 419 kts 194°
2026-04-28 07:00 41.15818 -7.36008 36935 ft 419 kts 192°
2026-04-28 07:01 41.10090 -7.37406 36934 ft 419 kts 191°
2026-04-28 07:01 41.04357 -7.38796 36933 ft 419 kts 192°
2026-04-28 07:02 40.98630 -7.40222 36925 ft 419 kts 192°
2026-04-28 07:02 40.92905 -7.41681 36924 ft 419 kts 192°
2026-04-28 07:03 40.87182 -7.43128 36919 ft 419 kts 192°
2026-04-28 07:03 40.81450 -7.44557 36943 ft 420 kts 192°
2026-04-28 07:04 40.75706 -7.45990 36942 ft 420 kts 192°
2026-04-28 07:04 40.69927 -7.47441 36940 ft 420 kts 192°
2026-04-28 07:05 40.64186 -7.48882 36935 ft 420 kts 192°
2026-04-28 07:05 40.58443 -7.50312 36935 ft 420 kts 192°
2026-04-28 07:06 40.52701 -7.51737 36933 ft 420 kts 192°
2026-04-28 07:06 40.46955 -7.53166 36932 ft 420 kts 192°
2026-04-28 07:07 40.41207 -7.54582 36935 ft 420 kts 192°
2026-04-28 07:07 40.35464 -7.56006 36931 ft 420 kts 192°
2026-04-28 07:08 40.29722 -7.57430 36928 ft 420 kts 192°
2026-04-28 07:08 40.24121 -7.58804 36927 ft 420 kts 192°
2026-04-28 07:09 40.18379 -7.60212 36926 ft 420 kts 192°
2026-04-28 07:09 40.12640 -7.61625 36922 ft 420 kts 192°
2026-04-28 07:10 40.06902 -7.63034 36924 ft 420 kts 192°
2026-04-28 07:10 40.01158 -7.64440 36920 ft 420 kts 192°
2026-04-28 07:11 39.95420 -7.65846 36919 ft 420 kts 192°
2026-04-28 07:11 39.89669 -7.67251 36916 ft 420 kts 192°
2026-04-28 07:12 39.83924 -7.68649 36910 ft 420 kts 192°
2026-04-28 07:12 39.78175 -7.70050 36907 ft 420 kts 192°
2026-04-28 07:13 39.72394 -7.71461 36909 ft 420 kts 192°
2026-04-28 07:13 39.66654 -7.72849 36905 ft 420 kts 192°
2026-04-28 07:14 39.60906 -7.74234 36900 ft 420 kts 192°
2026-04-28 07:14 39.55163 -7.75616 36897 ft 420 kts 192°
2026-04-28 07:15 39.49418 -7.77003 36890 ft 420 kts 192°
2026-04-28 07:15 39.44638 -7.78159 36893 ft 420 kts 192°
2026-04-28 07:16 39.38891 -7.79546 36891 ft 420 kts 192°
2026-04-28 07:16 39.33144 -7.80922 36889 ft 420 kts 192°
2026-04-28 07:17 39.27393 -7.82298 36893 ft 421 kts 192°
2026-04-28 07:17 39.21592 -7.83689 36894 ft 421 kts 192°
2026-04-28 07:18 39.15829 -7.85062 36896 ft 421 kts 192°
2026-04-28 07:18 39.10068 -7.86434 36899 ft 421 kts 192°
2026-04-28 07:19 39.04301 -7.87805 36896 ft 421 kts 192°
2026-04-28 07:19 38.98533 -7.89178 36835 ft 421 kts 192°
2026-04-28 07:19 38.95634 -7.89869 35816 ft 430 kts 192°
2026-04-28 07:20 38.92668 -7.90574 34963 ft 435 kts 192°
2026-04-28 07:20 38.89718 -7.91269 34388 ft 423 kts 192°
2026-04-28 07:20 38.86873 -7.91937 33955 ft 409 kts 192°
2026-04-28 07:20 38.84123 -7.92584 33465 ft 395 kts 192°
2026-04-28 07:21 38.81458 -7.93214 33040 ft 387 kts 192°
2026-04-28 07:21 38.78823 -7.93838 32616 ft 384 kts 192°
2026-04-28 07:21 38.76199 -7.94457 32195 ft 382 kts 192°
2026-04-28 07:22 38.71006 -7.95686 31362 ft 377 kts 191°
2026-04-28 07:22 38.68428 -7.96299 30952 ft 376 kts 191°
2026-04-28 07:22 38.65866 -7.96906 30561 ft 374 kts 191°
2026-04-28 07:22 38.63304 -7.97508 30158 ft 373 kts 191°
2026-04-28 07:23 38.60754 -7.98105 29737 ft 373 kts 191°
2026-04-28 07:23 38.58213 -7.98702 29349 ft 370 kts 191°
2026-04-28 07:23 38.55687 -7.99296 28964 ft 368 kts 191°
2026-04-28 07:23 38.53178 -7.99886 28600 ft 365 kts 191°
2026-04-28 07:24 38.50688 -8.00471 28236 ft 363 kts 191°
2026-04-28 07:24 38.48213 -8.01050 27874 ft 360 kts 191°
2026-04-28 07:24 38.45754 -8.01623 27508 ft 358 kts 191°
2026-04-28 07:24 38.43281 -8.02198 27147 ft 355 kts 191°
2026-04-28 07:25 38.40861 -8.02763 26774 ft 353 kts 191°
2026-04-28 07:25 38.38456 -8.03326 26410 ft 350 kts 191°
2026-04-28 07:25 38.36069 -8.03883 26036 ft 347 kts 191°
2026-04-28 07:25 38.33694 -8.04436 25659 ft 345 kts 191°
2026-04-28 07:26 38.31342 -8.04986 25283 ft 343 kts 191°
2026-04-28 07:26 38.28999 -8.05534 24899 ft 342 kts 191°
2026-04-28 07:26 38.26662 -8.06080 24516 ft 340 kts 191°
2026-04-28 07:26 38.24337 -8.06620 24132 ft 339 kts 190°
2026-04-28 07:27 38.22021 -8.07156 23744 ft 339 kts 190°
2026-04-28 07:27 38.19703 -8.07692 23320 ft 339 kts 190°
2026-04-28 07:27 38.17389 -8.08226 22901 ft 337 kts 190°
2026-04-28 07:27 38.15093 -8.08757 22506 ft 334 kts 190°
2026-04-28 07:28 38.12809 -8.09287 22117 ft 332 kts 190°
2026-04-28 07:28 38.10541 -8.09814 21723 ft 331 kts 190°
2026-04-28 07:28 38.08285 -8.10338 21337 ft 329 kts 190°
2026-04-28 07:28 38.06036 -8.10860 20944 ft 328 kts 190°
2026-04-28 07:29 38.03796 -8.11376 20557 ft 327 kts 190°
2026-04-28 07:29 38.01557 -8.11891 20168 ft 326 kts 190°
2026-04-28 07:29 37.99331 -8.12403 19781 ft 325 kts 190°
2026-04-28 07:29 37.97106 -8.12918 19393 ft 325 kts 190°
2026-04-28 07:30 37.94881 -8.13433 19006 ft 324 kts 190°
2026-04-28 07:30 37.92663 -8.13945 18610 ft 324 kts 190°
2026-04-28 07:30 37.90445 -8.14456 18226 ft 324 kts 190°
2026-04-28 07:30 37.88241 -8.14966 17899 ft 320 kts 190°
2026-04-28 07:31 37.86056 -8.15470 17530 ft 318 kts 191°
2026-04-28 07:31 37.83882 -8.15970 17145 ft 316 kts 191°
2026-04-28 07:31 37.81721 -8.16467 16767 ft 315 kts 191°
2026-04-28 07:31 37.79569 -8.16959 16390 ft 313 kts 191°
2026-04-28 07:32 37.77402 -8.17455 16014 ft 312 kts 191°
2026-04-28 07:32 37.75271 -8.17944 15647 ft 311 kts 191°
2026-04-28 07:32 37.73144 -8.18433 15266 ft 310 kts 191°
2026-04-28 07:32 37.71026 -8.18918 14902 ft 309 kts 191°
2026-04-28 07:33 37.68909 -8.19403 14534 ft 309 kts 191°
2026-04-28 07:33 37.66802 -8.19886 14161 ft 308 kts 191°
2026-04-28 07:33 37.64696 -8.20369 13795 ft 307 kts 191°
2026-04-28 07:33 37.62602 -8.20847 13382 ft 302 kts 191°
2026-04-28 07:34 37.60550 -8.21314 13032 ft 300 kts 191°
2026-04-28 07:34 37.58502 -8.21781 12667 ft 298 kts 191°
2026-04-28 07:34 37.56465 -8.22244 12308 ft 297 kts 190°
2026-04-28 07:34 37.54436 -8.22703 11948 ft 296 kts 190°
2026-04-28 07:35 37.52411 -8.23164 11591 ft 295 kts 190°
2026-04-28 07:35 37.50393 -8.23625 11241 ft 294 kts 190°
2026-04-28 07:35 37.48378 -8.24086 10874 ft 294 kts 190°
2026-04-28 07:35 37.46362 -8.24545 10513 ft 295 kts 190°
2026-04-28 07:36 37.44366 -8.24999 10156 ft 291 kts 190°
2026-04-28 07:36 37.42375 -8.25452 9799 ft 291 kts 190°
2026-04-28 07:36 37.40391 -8.25907 9446 ft 290 kts 190°
2026-04-28 07:36 37.38421 -8.26358 9103 ft 288 kts 190°
2026-04-28 07:37 37.36455 -8.26807 8745 ft 287 kts 190°
2026-04-28 07:37 37.34487 -8.27252 8357 ft 287 kts 189°
2026-04-28 07:37 37.32522 -8.27694 7996 ft 287 kts 189°
2026-04-28 07:37 37.30558 -8.28137 7643 ft 286 kts 189°
2026-04-28 07:38 37.28603 -8.28579 7291 ft 286 kts 190°
2026-04-28 07:38 37.26641 -8.29022 6934 ft 286 kts 190°
2026-04-28 07:38 37.24680 -8.29463 6576 ft 287 kts 190°
2026-04-28 07:38 37.22683 -8.29869 6199 ft 288 kts 184°
2026-04-28 07:39 37.20715 -8.29738 5876 ft 285 kts 170°
2026-04-28 07:39 37.18729 -8.29349 5536 ft 284 kts 170°
2026-04-28 07:39 37.16775 -8.28980 5230 ft 282 kts 171°
2026-04-28 07:39 37.14870 -8.28627 5124 ft 271 kts 171°
2026-04-28 07:40 37.13036 -8.28287 5008 ft 263 kts 171°
2026-04-28 07:40 37.11279 -8.27960 4893 ft 253 kts 170°
2026-04-28 07:40 37.09547 -8.27637 4782 ft 244 kts 170°
2026-04-28 07:40 37.07920 -8.27111 4500 ft 240 kts 153°
2026-04-28 07:41 37.06559 -8.25977 4300 ft 232 kts 134°
2026-04-28 07:41 37.05597 -8.24411 4074 ft 224 kts 116°
2026-04-28 07:41 37.05095 -8.22597 3799 ft 220 kts 99°
2026-04-28 07:41 37.04833 -8.20715 3512 ft 219 kts 99°
2026-04-28 07:42 37.04576 -8.18848 3219 ft 216 kts 99°
2026-04-28 07:42 37.04318 -8.17000 2933 ft 215 kts 99°
2026-04-28 07:42 37.04061 -8.15170 2660 ft 212 kts 99°
2026-04-28 07:42 37.03808 -8.13364 2365 ft 210 kts 100°
2026-04-28 07:43 37.03557 -8.11575 2085 ft 208 kts 100°
2026-04-28 07:43 37.03308 -8.09809 1810 ft 202 kts 99°
2026-04-28 07:43 37.03074 -8.08139 1544 ft 188 kts 100°
2026-04-28 07:43 37.02857 -8.06595 1334 ft 173 kts 100°
2026-04-28 07:44 37.02655 -8.05166 1075 ft 160 kts 99°
2026-04-28 07:44 37.02474 -8.03885 884 ft 141 kts 99°
2026-04-28 07:44 37.02307 -8.02707 708 ft 135 kts 98°
2026-04-28 07:44 37.02146 -8.01560 531 ft 133 kts 98°
2026-04-28 07:45 37.01986 -8.00421 352 ft 132 kts 98°
2026-04-28 07:45 37.01832 -7.99296 199 ft 132 kts 98°
2026-04-28 07:45 37.01670 -7.98170 35 ft 130 kts 98°
2026-04-28 07:45 37.01537 -7.97229 20 ft 86 kts 100°
2026-04-28 07:46 37.01465 -7.96723 22 ft 28 kts 99°
2026-04-28 07:46 37.01434 -7.96495 21 ft 20 kts 101°
2026-04-28 07:46 37.01432 -7.96350 22 ft 17 kts 79°
2026-04-28 07:46 37.01460 -7.96225 22 ft 12 kts 74°
2026-04-28 07:47 37.01494 -7.96129 21 ft 7 kts 44°
2026-04-28 07:47 37.01521 -7.96114 20 ft 0 kts
2026-04-28 07:47 37.01522 -7.96114 20 ft 1 kts
2026-04-28 07:47 37.01547 -7.96108 20 ft 5 kts
2026-04-28 07:48 37.01572 -7.96103 20 ft 6 kts 11°
2026-04-28 07:48 37.01625 -7.96090 20 ft 9 kts 11°
2026-04-28 07:48 37.01698 -7.96082 20 ft 12 kts 342°
2026-04-28 07:48 37.01733 -7.96180 20 ft 14 kts 279°
2026-04-28 07:49 37.01753 -7.96309 20 ft 16 kts 281°
2026-04-28 07:49 37.01770 -7.96429 20 ft 14 kts 279°
2026-04-28 07:49 37.01790 -7.96549 22 ft 14 kts 282°
2026-04-28 07:49 37.01801 -7.96626 20 ft 9 kts 279°
2026-04-28 07:50 37.01812 -7.96714 20 ft 11 kts 279°
2026-04-28 07:50 37.01825 -7.96804 20 ft 9 kts 282°
2026-04-28 07:50 37.01837 -7.96883 20 ft 9 kts 280°
2026-04-28 07:50 37.01845 -7.96937 22 ft 5 kts 280°
2026-04-28 07:51 37.01848 -7.96964 20 ft 2 kts 280°
2026-04-28 07:51 37.01860 -7.96984 20 ft 4 kts 327°
2026-04-28 07:51 37.01892 -7.96983 20 ft 5 kts
2026-04-28 07:51 37.01915 -7.96978 20 ft 4 kts
2026-04-28 07:52 37.01929 -7.96975 22 ft 1 kts 10°
2026-04-28 07:52 37.01935 -7.96973 23 ft 0 kts 10°
2026-04-28 07:52 37.01939 -7.96972 22 ft 0 kts 10°